Location: Rodanthe
(35.5920°N, 75.4670°W)
Time: 01:29:59
(UTC-04:00)

ISS - All Passes

Search period start: 26 March 2017 00:00
Search period end: 05 April 2017 00:00
Orbit: 399 x 409 km, 51.6° (Epoch: 26 March)

Date Brightness Start Highest point End Pass type
(mag) Time Alt. Az. Time Alt. Az. Time Alt. Az.
26 Mar - 03:03:03 10° N 03:05:01 15° NNE 03:06:57 10° ENE night (unlit)
26 Mar - 04:38:30 10° NW 04:41:48 72° SW 04:45:05 10° SE visible
26 Mar - 19:41:20 10° SSE 19:43:08 14° SE 19:44:58 10° E visible
26 Mar - 21:16:11 10° WSW 21:19:19 43° NW 21:22:27 10° NE visible
27 Mar - 03:46:13 10° NW 03:49:26 52° NE 03:52:40 10° ESE night (unlit)
27 Mar - 05:24:11 10° WSW 05:25:33 12° SW 05:26:55 10° SSW night (unlit)
27 Mar - 20:23:41 10° SW 20:26:56 87° SE 20:30:12 10° NE visible
27 Mar - 22:02:11 10° NW 22:03:48 13° NNW 22:05:25 10° N visible
28 Mar - 02:54:06 10° NNW 02:56:58 27° NE 02:59:52 10° E night (unlit)
28 Mar - 04:30:37 10° WNW 04:33:23 25° SW 04:36:07 10° S night (unlit)
28 Mar - 19:31:35 10° SSW 19:34:37 38° SE 19:37:40 10° ENE daylight
28 Mar - 21:08:41 10° W 21:11:11 20° NNW 21:13:41 10° NNE visible
29 Mar - 02:02:11 10° NNW 02:04:25 17° NNE 02:06:40 10° ENE night (unlit)
29 Mar - 03:37:53 10° WNW 03:41:06 54° SW 03:44:19 10° SSE night (unlit)
29 Mar - 18:40:05 10° S 18:42:23 18° SE 18:44:42 10° E daylight
29 Mar - 20:15:39 10° WSW 20:18:39 34° NW 20:21:40 10° NNE visible
30 Mar - 01:10:41 10° N 01:11:45 11° NNE 01:12:49 10° NE night (unlit)
30 Mar - 02:45:27 10° NW 02:48:45 68° NE 02:52:01 10° SE night (unlit)
30 Mar - 19:22:58 10° SW 19:26:12 71° NW 19:29:27 10° NE daylight
30 Mar - 21:02:02 10° NW 21:03:10 11° NNW 21:04:17 10° N visible
31 Mar - 01:53:15 10° NNW 01:56:17 33° NE 01:59:18 10° ESE night (unlit)
31 Mar - 03:30:08 10° W 03:32:34 19° SW 03:35:01 10° S night (unlit)
31 Mar - 18:30:41 10° SSW 18:33:50 50° SE 18:36:59 10° ENE daylight
31 Mar - 20:08:15 10° WNW 20:10:29 17° NNW 20:12:44 10° NNE visible
01 Apr - 01:01:13 10° NNW 01:03:42 20° NNE 01:06:12 10° E night (unlit)
01 Apr - 02:37:11 10° WNW 02:40:17 41° SW 02:43:24 10° SSE night (unlit)
01 Apr - 17:38:54 10° S 17:41:32 23° SE 17:44:10 10° ENE daylight
01 Apr - 19:15:01 10° W 19:17:53 28° NW 19:20:46 10° NNE daylight
02 Apr - 00:09:28 10° N 00:11:03 13° NNE 00:12:36 10° NE night (unlit)
02 Apr - 01:44:38 10° NW 01:47:56 88° NE 01:51:12 10° SE night (unlit)
02 Apr - 16:48:17 10° SE 16:49:17 11° SE 16:50:16 10° ESE daylight
02 Apr - 18:22:11 10° WSW 18:25:22 55° NW 18:28:33 10° NE daylight
03 Apr - 00:52:19 10° NW 00:55:27 41° NE 00:58:34 10° ESE night (unlit)
03 Apr - 02:29:38 10° W 02:31:39 15° SW 02:33:39 10° SSW night (unlit)
03 Apr - 17:29:42 10° SW 17:32:55 67° SE 17:36:08 10° NE daylight
03 Apr - 19:07:43 10° WNW 19:09:41 15° NNW 19:11:38 10° N daylight
04 Apr - 00:00:11 10° NNW 00:02:52 23° NNE 00:05:34 10° E night (unlit)
04 Apr - 01:36:24 10° WNW 01:39:21 31° SW 01:42:19 10° SSE night (unlit)
04 Apr - 16:37:41 10° SSW 16:40:33 29° SE 16:43:25 10° ENE daylight
04 Apr - 18:14:19 10° W 18:17:00 23° NNW 18:19:42 10° NNE daylight
04 Apr - 23:08:17 10° N 23:10:11 14° NNE 23:12:07 10° ENE night (unlit)
